Regional Weather Roundup
Issued by NWS

Home | Current Version | Previous Version | Text Only | Print | Product List | Glossary Off
Versions: 1 2 3 4 5 6 7 8 9 10 11 12 13 14 15 16 17 18 19 20 21 22 23 24 25 26 27 28 29 30 31 32 33 34 35 36 37 38 39 40 41 42 43 44 45 46 47 48 49 50

000
ASUS43 KMPX 010410
RWRMN
WEATHER ROUNDUP FOR MINNESOTA
NATIONAL WEATHER SERVICE TWIN CITIES/CHANHASSEN MN
1100 PM CDT FRI SEP 30 2016


NOTE: "FAIR" INDICATES FEW OR NO CLOUDS BELOW 12,000 FEET WITH NO
SIGNIFICANT WEATHER AND/OR OBSTRUCTIONS TO VISIBILITY. N/A MEANS
CURRENT SKY AND/OR WEATHER CONDITIONS ARE NOT AVAILABLE.

MNZ060>063-068>070-010500-
   Twin Cities Metro

CITY           SKY/WX    TMP DP  RH WIND       PRES   REMARKS
TWIN CITIES    PTCLDY    60  52  74 NE9       30.20F
ST PAUL        CLEAR     60  52  74 CALM      30.22R
CRYSTAL        CLEAR     57  50  77 NE6       30.20F
BLAINE         CLEAR     57  52  82 NE5       30.22S
LAKEVILLE      CLOUDY    61  54  77 NE5       30.20S
EDEN PRAIRIE   CLEAR     59  52  77 N6        30.19F
LAKEVILLE      CLOUDY    61  54  77 NE5       30.20S
SOUTH ST PAUL  PTCLDY    60  52  74 N5        30.20S
LAKE ELMO      MOCLDY    57  54  88 N6        30.22S
$$
MNZ001>005-007-008-013>017-022>024-027-028-010500-
   Northwest Minnesota

CITY           SKY/WX    TMP DP  RH WIND       PRES   REMARKS
BEMIDJI        CLEAR     52  48  87 SE8       30.25S
HALLOCK        CLOUDY    57  54  88 SE10      30.19R
ROSEAU         PTCLDY    54  48  82 SE3       30.24S
WARROAD        PTCLDY    52  48  87 SE5       30.25F
THIEF RVR FALL MOCLDY    54  51  90 SE9       30.23S
CROOKSTON      MOCLDY    55  52  88 SE9       30.21S
FOSSTON        MOCLDY    48  45  87 CALM      30.24S
DETROIT LAKES  PTCLDY    54  46  76 CALM      30.23F
MOORHEAD       CLOUDY    55  48  76 E5        30.20F
PARK RAPIDS    CLEAR     53  45  74 E6        30.24F
MAHNOMEN       FAIR      50  47  88 CALM      30.23R
$$
MNZ006-009>011-018-025>026-010500-
   North Central Minnesota

CITY           SKY/WX    TMP DP  RH WIND       PRES   REMARKS
BAUDETTE       PTCLDY    49  47  93 E7        30.26F
FLAG ISLAND    PTCLDY    54  52  94 SE7       30.24S
INTL FALLS     CLOUDY    44  42  93 SE6       30.28S
WASKISH        PTCLDY    50  48  93 E5        30.27R
BIG FORK       CLEAR     46  45  93 CALM      30.28F
LONGVILLE      CLEAR     43  43 100 CALM      30.25F
GRAND RAPIDS   CLEAR     50  48  93 SE6       30.29S
ORR            CLEAR     46  45  93 CALM      30.28S
COOK           CLEAR     45  45 100 CALM      30.30S
WALKER         FAIR      46  46  99 CALM      30.25S
$$
MNZ012-019>021-037-010500-
   Northeast Minnesota

CITY           SKY/WX    TMP DP  RH WIND       PRES   REMARKS
DULUTH         CLOUDY    51  51 100 E9        30.28F FOG
ELY            CLEAR     45  43  93 CALM      30.30F
HIBBING        CLEAR     40  40 100 NW3       30.28F FOG
EVELETH        CLEAR     45  43  93 CALM      30.30S
DULUTH HARBOR  CLOUDY    54  52  94 NE9       30.30S
TWO HARBORS    MOCLDY    52  46  82 CALM      30.27F HAZE
SILVER BAY     CLEAR     54  50  87 NE5       30.28S
GRAND MARAIS     N/A     57  37  47 N5        30.29F
G MARAIS ARPRT CLEAR     50  39  66 E6        30.32F
$$
MNZ029>031-032-039>041-046>048-054>057-064-010500-
   West Central Minnesota

CITY           SKY/WX    TMP DP  RH WIND       PRES   REMARKS
FERGUS FALLS   CLOUDY    54  46  76 E3        30.23S
WHEATON        CLEAR     48  46  93 SE5       30.21F
MORRIS         CLEAR     50  46  87 E6        30.20S
ALEXANDRIA     CLEAR     55  50  83 E9        30.23S
ELBOW LAKE     FAIR      54  50  86 SE9       30.21S
WADENA         CLEAR     48  46  93 E5        30.23S
GLENWOOD       CLEAR     52  48  87 NE6       30.22F
APPLETON       CLEAR     52  45  76 E5        30.20S
BENSON         CLEAR     50  45  81 CALM      30.20F
ORTONVILLE     CLEAR     55  45  67 CALM      30.19S
MADISON        CLEAR     54  46  76 E5        30.20S
WILLMAR        FAIR      57  52  82 E6        30.22S
$$
MNZ033>034-036-042>043-049>051-058-059-010500-
   Central Minnesota

CITY           SKY/WX    TMP DP  RH WIND       PRES   REMARKS
ST CLOUD       CLEAR     53  52  96 NE5       30.23F
SAUK CENTRE    FAIR      54  49  85 E6        30.23S
PAYNESVILLE    CLEAR     53  53 100 CALM      30.22F
AITKIN         CLOUDY    54  48  82 E3        30.25F
PINE RIVER     CLEAR     46  46 100 E6        30.28S
BRAINERD       MOCLDY    51  49  92 E5        30.25F
STAPLES        CLEAR     48  45  87 CALM      30.24S
LONG PRAIRIE   FAIR      50  46  87 NE3       30.23F
LITTLE FALLS   CLEAR     52  48  87 E3        30.23F
LITCHFIELD     CLEAR     57  52  82 CALM      30.22S
BUFFALO        CLEAR     56  51  82 NE6       30.23S
MAPLE LAKE     CLEAR     55  53  90 CALM      30.23S
HUTCHINSON     CLOUDY    58  53  81 NE8       30.22S
$$
MNZ037-044-045-052-053-010500-
   East Central Minnesota

CITY           SKY/WX    TMP DP  RH WIND       PRES   REMARKS
PRINCETON      CLEAR     54  52  94 NE5       30.23F
MORA           CLOUDY    52  50  93 E5        30.26F
CAMBRIDGE      CLEAR     55  48  76 NE5       30.22F
MOOSE LAKE     CLOUDY    52  50  93 E6        30.24F
HINCKLEY       CLOUDY    54  52  94 NE3       30.25F
CLOQUET        CLOUDY    52  48  87 E12       30.27F FOG
MCGREGOR       CLOUDY    52  50  93 E5        30.27F
$$
MNZ071>073-080-081-089-090-097-098-010500-
   Southwest Minnesota

CITY           SKY/WX    TMP DP  RH WIND       PRES   REMARKS
MONTEVIDEO     CLEAR     52  45  76 SE3       30.22S
GRANITE FALLS  CLEAR     56  49  76 E3        30.21S
CANBY          PTCLDY    49  46  89 CALM      30.21S
MARSHALL       CLEAR     51  46  83 CALM      30.20S
REDWOOD FALLS  CLEAR     57  49  74 E5        30.20S
OLIVIA         CLEAR     55  48  76 E5        30.19F
PIPESTONE      CLOUDY    55  46  71 E3        30.19F
WINDOM         MOCLDY    57  52  82 E5        30.20S
WORTHINGTON    CLEAR     53  49  86 CALM      30.20S
JACKSON        CLOUDY    63  50  63 NE3       30.20S
TRACY          CLEAR     55  50  83 SE3       30.21S
SLAYTON        CLEAR     55  50  82 E7        30.21S
$$
MNZ065>067-074>077-082>085-091>093-010500-
   South Central Minnesota

CITY           SKY/WX    TMP DP  RH WIND       PRES   REMARKS
NEW ULM        CLEAR     61  48  63 E5        30.19F
ST JAMES       CLOUDY    61  52  72 NE5       30.20S
FAIRMONT       CLOUDY    62  53  72 E5        30.19S
GLENCOE        CLEAR     58  54  86 CALM      30.20S
FARIBAULT      CLOUDY    61  54  77 CALM      30.20R
OWATONNA       CLOUDY    61  54  77 CALM      30.19S
WASECA         CLOUDY    61  52  72 N3        30.20S
ALBERT LEA     CLOUDY    63  57  82 CALM      30.19S
$$
MNZ078>079-086>088-094>096-010500-
   Southeast Minnesota

CITY           SKY/WX    TMP DP  RH WIND       PRES   REMARKS
ROCHESTER      CLOUDY    61  56  83 E5        30.20S
RED WING       CLOUDY    63  54  72 NE6       30.18S
DODGE CENTER   CLOUDY    61  54  77 CALM      30.20R
WINONA         CLOUDY    61  57  88 CALM      30.19S
AUSTIN         CLOUDY    61  55  82 CALM      30.19S
PRESTON        CLOUDY    59  54  83 E3        30.20S
$$
ABBREVIATIONS USED IN REMARKS
   TC - TEMPERATURES IN CELSIUS
  WCI - WIND CHILL INDEX
   HX - HEAT INDEX
  VSB - VISIBILITY
$$



USA.gov is the U.S. government's official web portal to all federal, state and local government web resources and services.